Home   Weather   Stralsund   Past weeks

Flag for Germany Past Weather in Stralsund, Mecklenburg-Western Pomerania, Germany — Yesterday and Last 2 Weeks

46 °F

Broken clouds.

Feels Like: 42 °F
Forecast: 45 / 49 °F
Wind: 9 mph from East

Location: Laage

Current Time: Oct 21, 2016 at 5:04:30 PM

Latest Report: Oct 21, 2016 at 4:20 PM

Visibility: 4 mi

Pressure: 29.92 "Hg

Humidity: 93%

Dew Point: 45 °F

Location of StralsundLocation

Past Weather in Stralsund — Graph


Stralsund Temperature Yesterday

Maximum temperature yesterday: 48 °F (at 12:20 PM)
Minimum temperature yesterday: 43 °F (at 12:20 AM)
Average temperature yesterday: 46 °F

High & Low Weather Summary for the Past Weeks

High54 °F (Oct 8, 1:20 PM)100% (Oct 7, 8:00 AM)30.30 "Hg (Oct 7, 8:00 AM)
Low34 °F (Oct 10, 6:20 AM)62% (Oct 8, 4:20 PM)29.89 "Hg (Oct 15, 7:20 AM)
Average46 °F90%30.13 "Hg
* Reported Oct 6 3:20 PM — Oct 21 3:48 PM, Stralsund, Weather by CustomWeather, © 2016

Note: Actual official high and low records may vary slightly from our data, if they occured in-between our weather recording intervals... More about our weather records


Stralsund Weather History for the Previous 24 Hours

Scroll right to see more
Time TempWeatherWind HumidityBarometerVisibility
3:48 PM
Fri, Oct 21
48 °FPartly sunny.9 mph87%29.92 "Hg4 mi
3:20 PM46 °FBroken clouds.9 mph93%29.92 "Hg4 mi
3:00 PM46 °FFog.9 mph93%29.92 "Hg3 mi
2:20 PM45 °FDrizzle. Fog.10 mph100%29.92 "Hg1 mi
1:20 PM46 °FFog.9 mph87%29.92 "Hg3 mi
11:20 AM45 °FFog.7 mph93%29.92 "Hg3 mi
10:20 AM45 °FPartly sunny.7 mph93%29.89 "Hg6 mi
10:03 AM45 °FPartly sunny.6 mph93%29.89 "HgN/A
9:47 AM45 °FPartly sunny.6 mph93%29.89 "Hg5 mi
9:20 AM45 °FFog.5 mph93%29.89 "Hg1 mi
8:57 AM45 °FFog.5 mph93%29.89 "Hg1 mi
8:20 AM45 °FFog.1 mph93%29.89 "Hg0 mi
7:59 AM45 °FFog.No wind100%29.89 "Hg1 mi
7:47 AM45 °FFog.No wind93%29.89 "Hg1 mi
7:20 AM45 °FFog.1 mph100%29.89 "Hg4 mi
6:20 AM45 °FPartly cloudy.2 mph100%29.89 "Hg4 mi
5:20 AM45 °FPartly cloudy.1 mph100%29.89 "Hg4 mi
4:20 AM45 °FPassing clouds.3 mph100%29.92 "Hg5 mi
3:20 AM45 °FPartly cloudy.5 mph100%29.92 "Hg5 mi
2:20 AM46 °FPartly cloudy.5 mph93%29.95 "Hg4 mi
1:20 AM46 °FFog.6 mph93%29.95 "Hg2 mi
12:20 AM46 °FFog.3 mph93%29.98 "Hg2 mi
11:20 PM
Thu, Oct 20
46 °FFog.7 mph93%29.98 "Hg3 mi
10:20 PM46 °FFog.7 mph93%29.98 "Hg3 mi
9:20 PM46 °FDrizzle. Fog.7 mph93%29.98 "Hg2 mi
8:50 PM46 °FDrizzle. Fog.6 mph93%29.98 "Hg1 mi
8:20 PM46 °FDrizzle. Fog.6 mph93%29.98 "Hg2 mi
7:20 PM46 °FFog.7 mph93%29.98 "Hg2 mi
6:20 PM45 °FRain. Fog.7 mph100%29.98 "Hg1 mi
5:20 PM45 °FRain. Fog.7 mph100%29.98 "Hg2 mi
Weather by CustomWeather, © 2016

See weather overviewHow to use our weather pages